| time (UTC) | temp F | wind direction | speed knots | gust knots | rain 1hr in | rain 24hr in | rain mn in | humidity % | barometer mb |
| 20260831005519 | 64 | 286 | 1.7 | 7.8 | 0.08 | 0.08 | 0.08 | 75 | 1016.1 |
| 20260831004516 | 65 | 265 | 0.0 | 1.7 | 0.00 | 0.00 | 0.00 | 75 | 1015.3 |
| 20260831003518 | 64 | 54 | 0.0 | 0.0 | 0.00 | 0.00 | 0.00 | 73 | 1014.7 |
| 20260831002517 | 65 | 279 | 0.0 | 0.0 | 0.00 | 0.00 | 0.00 | 74 | 1014.3 |
| 20260831001518 | 66 | 279 | 0.0 | 0.9 | 0.00 | 0.00 | 0.00 | 75 | 1013.9 |
| 20260831000955 | 66 | 279 | 0.9 | 3.5 | 0.00 | 0.00 | 0.00 | 75 | 1013.8 |
| 20260831000004 | 66 | 279 | 0.9 | 3.5 | 0.00 | 0.00 | 0.00 | 75 | 1013.6 |
| 20260830234516 | 66 | 205 | 1.7 | 4.3 | 0.00 | 0.00 | 0.00 | 75 | 1013.4 |
| 20260830233518 | 66 | 201 | 0.9 | 4.3 | 0.00 | 0.00 | 0.00 | 75 | 1013.4 |
| 20260830232517 | 67 | 225 | 0.9 | 2.6 | 0.00 | 0.00 | 0.00 | 75 | 1013.4 |
| 20260830231517 | 67 | 289 | 0.9 | 5.2 | 0.00 | 0.00 | 0.00 | 75 | 1013.5 |
| 20260830230517 | 67 | 275 | 1.7 | 5.2 | 0.00 | 0.00 | 0.00 | 75 | 1013.4 |
| 20260830230003 | 67 | 196 | 1.7 | 4.3 | 0.00 | 0.00 | 0.00 | 75 | 1013.4 |
| 20260830224518 | 68 | 252 | 0.0 | 3.5 | 0.00 | 0.00 | 0.00 | 75 | 1013.3 |
| 20260830224003 | 69 | 277 | 0.9 | 2.6 | 0.00 | 0.00 | 0.00 | 74 | 1013.4 |
| 20260830222517 | 69 | 252 | 0.9 | 3.5 | 0.00 | 0.00 | 0.00 | 75 | 1013.2 |
| 20260830221511 | 69 | 219 | 1.7 | 4.3 | 0.00 | 0.00 | 0.00 | 74 | 1013.3 |
| 20260830220511 | 69 | 217 | 0.9 | 5.2 | 0.00 | 0.00 | 0.00 | 74 | 1013.3 |
| 20260830215511 | 69 | 232 | 1.7 | 5.2 | 0.00 | 0.00 | 0.00 | 73 | 1013.2 |
| 20260830214511 | 70 | 225 | 1.7 | 5.2 | 0.00 | 0.00 | 0.00 | 74 | 1013.3 |
| 20260830213512 | 70 | 260 | 1.7 | 6.1 | 0.00 | 0.00 | 0.00 | 73 | 1013.1 |
| 20260830212953 | 70 | 267 | 1.7 | 7.0 | 0.00 | 0.00 | 0.00 | 74 | 1013.1 |
| 20260830211509 | 70 | 205 | 2.6 | 7.0 | 0.00 | 0.00 | 0.00 | 73 | 1013.1 |
| 20260830210509 | 70 | 190 | 1.7 | 6.1 | 0.00 | 0.00 | 0.00 | 74 | 1013.2 |
| 20260830205509 | 70 | 265 | 1.7 | 7.8 | 0.00 | 0.00 | 0.00 | 73 | 1013.3 |
| 20260830204509 | 70 | 172 | 2.6 | 7.8 | 0.00 | 0.00 | 0.00 | 72 | 1013.2 |
| 20260830203509 | 70 | 286 | 3.5 | 10.4 | 0.00 | 0.00 | 0.00 | 73 | 1013.2 |
| 20260830202508 | 70 | 253 | 2.6 | 10.4 | 0.00 | 0.00 | 0.00 | 74 | 1013.2 |
| 20260830201509 | 70 | 275 | 1.7 | 6.1 | 0.00 | 0.00 | 0.00 | 74 | 1013.6 |
| 20260830200509 | 71 | 256 | 2.6 | 7.0 | 0.00 | 0.00 | 0.00 | 74 | 1013.6 |
| 20260830195509 | 71 | 213 | 1.7 | 7.0 | 0.00 | 0.00 | 0.00 | 74 | 1013.5 |
| 20260830194509 | 71 | 202 | 1.7 | 7.0 | 0.00 | 0.00 | 0.00 | 73 | 1013.5 |
| 20260830193508 | 71 | 268 | 2.6 | 7.0 | 0.00 | 0.00 | 0.00 | 74 | 1013.6 |
| 20260830192503 | 71 | 202 | 1.7 | 6.1 | 0.00 | 0.00 | 0.00 | 74 | 1013.8 |
| 20260830191501 | 70 | 266 | 1.7 | 7.8 | 0.00 | 0.00 | 0.00 | 74 | 1014.0 |
| 20260830190501 | 70 | 328 | 2.6 | 7.8 | 0.00 | 0.00 | 0.00 | 73 | 1014.0 |
| 20260830185501 | 70 | 211 | 1.7 | 7.0 | 0.00 | 0.00 | 0.00 | 74 | 1014.2 |
| 20260830184501 | 69 | 273 | 2.6 | 7.8 | 0.00 | 0.00 | 0.00 | 74 | 1014.3 |
| 20260830183501 | 70 | 231 | 1.7 | 7.8 | 0.00 | 0.00 | 0.00 | 74 | 1014.4 |
| 20260830183422 | 69 | 213 | 1.7 | 7.0 | 0.00 | 0.00 | 0.00 | 74 | 1014.6 |
| 20260830181500 | 69 | 298 | 0.9 | 5.2 | 0.00 | 0.00 | 0.00 | 74 | 1014.8 |
| 20260830180502 | 69 | 182 | 0.9 | 4.3 | 0.00 | 0.00 | 0.00 | 74 | 1014.9 |
| 20260830175501 | 69 | 239 | 0.0 | 4.3 | 0.00 | 0.00 | 0.00 | 74 | 1015.0 |
| 20260830174500 | 69 | 318 | 0.0 | 4.3 | 0.00 | 0.00 | 0.00 | 74 | 1015.0 |
| 20260830173501 | 69 | 190 | 0.0 | 4.3 | 0.00 | 0.00 | 0.00 | 74 | 1015.1 |
| 20260830172500 | 69 | 202 | 0.0 | 5.2 | 0.00 | 0.00 | 0.00 | 74 | 1015.2 |
| 20260830171501 | 69 | 298 | 0.9 | 5.2 | 0.00 | 0.00 | 0.00 | 74 | 1015.4 |
| 20260830170942 | 69 | 298 | 0.0 | 4.3 | 0.00 | 0.00 | 0.00 | 74 | 1015.3 |
| 20260830165501 | 70 | 240 | 0.0 | 2.6 | 0.00 | 0.00 | 0.00 | 74 | 1015.3 |
| 20260830164500 | 70 | 239 | 0.0 | 0.0 | 0.00 | 0.00 | 0.00 | 73 | 1015.3 |
| 20260830163501 | 70 | 208 | 0.0 | 5.2 | 0.00 | 0.00 | 0.00 | 72 | 1015.4 |
| 20260830162501 | 71 | 126 | 0.9 | 6.1 | 0.00 | 0.00 | 0.00 | 72 | 1015.4 |
| 20260830161500 | 71 | 232 | 0.0 | 4.3 | 0.00 | 0.00 | 0.00 | 72 | 1015.3 |
| 20260830160501 | 71 | 252 | 0.9 | 4.3 | 0.00 | 0.00 | 0.00 | 71 | 1015.5 |
| 20260830155501 | 71 | 267 | 0.0 | 3.5 | 0.00 | 0.00 | 0.00 | 71 | 1015.4 |
| 20260830154943 | 71 | 236 | 0.0 | 5.2 | 0.00 | 0.00 | 0.00 | 71 | 1015.7 |
| 20260830153501 | 70 | 232 | 0.9 | 5.2 | 0.00 | 0.00 | 0.00 | 72 | 1015.8 |
| 20260830152501 | 69 | 211 | 0.9 | 5.2 | 0.00 | 0.00 | 0.00 | 73 | 1016.0 |
| 20260830151501 | 68 | 256 | 0.0 | 4.3 | 0.00 | 0.00 | 0.00 | 74 | 1016.2 |
| 20260830150500 | 69 | 184 | 0.0 | 0.0 | 0.00 | 0.00 | 0.00 | 74 | 1016.2 |
| 20260830145501 | 69 | 290 | 0.0 | 0.0 | 0.00 | 0.00 | 0.00 | 73 | 1016.4 |
| 20260830144501 | 69 | 279 | 0.0 | 3.5 | 0.00 | 0.00 | 0.00 | 73 | 1016.5 |
| 20260830143501 | 69 | 183 | 0.0 | 5.2 | 0.00 | 0.00 | 0.00 | 72 | 1016.5 |
| 20260830142501 | 70 | 225 | 0.9 | 5.2 | 0.00 | 0.00 | 0.00 | 70 | 1016.7 |
| 20260830141938 | 71 | 246 | 0.0 | 5.2 | 0.00 | 0.00 | 0.00 | 70 | 1016.6 |
| 20260830140944 | 70 | 266 | 0.0 | 5.2 | 0.00 | 0.00 | 0.00 | 70 | 1016.5 |
| 20260830135502 | 69 | 198 | 0.0 | 0.0 | 0.00 | 0.00 | 0.00 | 72 | 1016.5 |
| 20260830134936 | 68 | 198 | 0.0 | 0.0 | 0.00 | 0.00 | 0.00 | 74 | 1016.9 |
| 20260830133501 | 68 | 202 | 0.0 | 0.0 | 0.00 | 0.00 | 0.00 | 73 | 1016.8 |
| 20260830132501 | 68 | 254 | 0.0 | 0.0 | 0.00 | 0.00 | 0.00 | 74 | 1016.8 |
| 20260830131501 | 67 | 175 | 0.0 | 0.0 | 0.00 | 0.00 | 0.00 | 74 | 1016.7 |
| 20260830130500 | 67 | 255 | 0.0 | 0.0 | 0.00 | 0.00 | 0.00 | 74 | 1016.6 |
| 20260830125501 | 66 | 244 | 0.0 | 0.0 | 0.00 | 0.00 | 0.00 | 74 | 1016.6 |
| 20260830124500 | 65 | 171 | 0.0 | 0.0 | 0.00 | 0.00 | 0.00 | 73 | 1016.8 |
| 20260830123500 | 63 | 185 | 0.0 | 0.0 | 0.00 | 0.00 | 0.00 | 71 | 1016.7 |
| 20260830122501 | 62 | 160 | 0.0 | 0.0 | 0.00 | 0.00 | 0.00 | 71 | 1016.7 |
| 20260830121501 | 62 | 184 | 0.0 | 0.0 | 0.00 | 0.00 | 0.00 | 69 | 1016.7 |
| 20260830120500 | 61 | 192 | 0.0 | 0.0 | 0.00 | 0.00 | 0.00 | 66 | 1016.9 |
| 20260830115501 | 60 | 194 | 0.0 | 0.0 | 0.00 | 0.00 | 0.00 | 64 | 1016.9 |
| 20260830114501 | 60 | 286 | 0.0 | 0.0 | 0.00 | 0.00 | 0.00 | 62 | 1017.1 |
| 20260830113939 | 59 | 207 | 0.0 | 0.0 | 0.00 | 0.00 | 0.00 | 59 | 1017.0 |
| 20260830112502 | 59 | 246 | 0.0 | 0.0 | 0.00 | 0.00 | 0.00 | 57 | 1017.1 |
| 20260830111501 | 58 | 238 | 0.0 | 0.0 | 0.00 | 0.00 | 0.00 | 56 | 1017.1 |
| 20260830110500 | 57 | 201 | 0.0 | 0.0 | 0.00 | 0.00 | 0.00 | 56 | 1016.9 |
| 20260830105501 | 56 | 244 | 0.0 | 0.0 | 0.00 | 0.00 | 0.00 | 56 | 1016.9 |
| 20260830104501 | 55 | 221 | 0.0 | 0.0 | 0.00 | 0.00 | 0.00 | 56 | 1017.1 |
| 20260830103931 | 55 | 237 | 0.0 | 0.0 | 0.00 | 0.00 | 0.00 | 56 | 1017.3 |
| 20260830102457 | 54 | 223 | 0.0 | 0.0 | 0.00 | 0.00 | 0.00 | 57 | 1017.3 |
| 20260830101457 | 53 | 247 | 0.0 | 0.0 | 0.00 | 0.00 | 0.00 | 57 | 1017.3 |
| 20260830100457 | 53 | 247 | 0.0 | 0.0 | 0.00 | 0.00 | 0.00 | 57 | 1017.4 |
| 20260830095942 | 53 | 263 | 0.0 | 0.0 | 0.00 | 0.00 | 0.00 | 58 | 1017.5 |
| 20260830094456 | 53 | 292 | 0.0 | 0.0 | 0.00 | 0.00 | 0.00 | 58 | 1017.4 |
| 20260830093450 | 53 | 261 | 0.0 | 0.0 | 0.00 | 0.00 | 0.00 | 58 | 1017.4 |
| 20260830092450 | 53 | 250 | 0.0 | 0.0 | 0.00 | 0.00 | 0.00 | 58 | 1017.4 |
| 20260830091451 | 53 | 273 | 0.0 | 0.0 | 0.00 | 0.00 | 0.00 | 58 | 1017.5 |
| 20260830090451 | 53 | 246 | 0.0 | 0.0 | 0.00 | 0.00 | 0.00 | 58 | 1017.4 |
| 20260830085449 | 53 | 282 | 0.0 | 0.0 | 0.00 | 0.00 | 0.00 | 59 | 1017.4 |
| 20260830084449 | 53 | 282 | 0.0 | 0.0 | 0.00 | 0.00 | 0.00 | 58 | 1017.5 |
| 20260830083449 | 53 | 244 | 0.0 | 0.0 | 0.00 | 0.00 | 0.00 | 58 | 1017.4 |
| 20260830082449 | 53 | 257 | 0.0 | 0.0 | 0.00 | 0.00 | 0.00 | 58 | 1017.4 |
| 20260830081447 | 53 | 266 | 0.0 | 0.0 | 0.00 | 0.00 | 0.00 | 59 | 1017.4 |
| 20260830080447 | 53 | 277 | 0.0 | 0.0 | 0.00 | 0.00 | 0.00 | 59 | 1017.5 |
| 20260830075447 | 53 | 284 | 0.0 | 0.0 | 0.00 | 0.00 | 0.00 | 59 | 1017.5 |
| 20260830074447 | 53 | 286 | 0.0 | 0.0 | 0.00 | 0.00 | 0.00 | 59 | 1017.6 |
| 20260830073447 | 53 | 286 | 0.0 | 0.0 | 0.00 | 0.00 | 0.00 | 59 | 1017.6 |
| 20260830072447 | 53 | 286 | 0.0 | 0.0 | 0.00 | 0.00 | 0.00 | 59 | 1017.5 |
| 20260830071446 | 53 | 296 | 0.0 | 0.0 | 0.00 | 0.00 | 0.00 | 59 | 1017.5 |
| 20260830070447 | 53 | 281 | 0.0 | 0.0 | 0.00 | 0.00 | 0.00 | 60 | 1017.5 |
| 20260830065447 | 53 | 281 | 0.0 | 0.0 | 0.00 | 0.00 | 0.00 | 60 | 1017.6 |
| 20260830064442 | 52 | 281 | 0.0 | 0.0 | 0.00 | 0.00 | 0.00 | 61 | 1017.7 |
| 20260830063441 | 52 | 281 | 0.0 | 0.0 | 0.00 | 0.00 | 0.00 | 61 | 1017.9 |
| 20260830062440 | 52 | 281 | 0.0 | 0.0 | 0.00 | 0.00 | 0.00 | 63 | 1017.9 |
| 20260830061441 | 52 | 281 | 0.0 | 0.0 | 0.00 | 0.00 | 0.00 | 63 | 1017.9 |
| 20260830060440 | 52 | 281 | 0.0 | 0.0 | 0.00 | 0.00 | 0.00 | 64 | 1017.9 |
| 20260830055440 | 53 | 281 | 0.0 | 0.0 | 0.00 | 0.00 | 0.00 | 64 | 1018.0 |
| 20260830054441 | 53 | 281 | 0.0 | 0.0 | 0.00 | 0.00 | 0.00 | 64 | 1018.2 |
| 20260830053441 | 53 | 281 | 0.0 | 0.0 | 0.00 | 0.00 | 0.00 | 64 | 1018.1 |
| 20260830052439 | 54 | 281 | 0.0 | 0.0 | 0.00 | 0.00 | 0.00 | 65 | 1018.2 |
| 20260830051439 | 53 | 281 | 0.0 | 0.0 | 0.00 | 0.00 | 0.00 | 65 | 1018.3 |
| 20260830050436 | 53 | 281 | 0.0 | 0.0 | 0.00 | 0.00 | 0.00 | 67 | 1018.4 |
| 20260830045435 | 54 | 281 | 0.0 | 0.0 | 0.00 | 0.00 | 0.00 | 68 | 1018.5 |
| 20260830044434 | 54 | 281 | 0.0 | 0.0 | 0.00 | 0.00 | 0.00 | 69 | 1018.6 |
| 20260830043907 | 55 | 281 | 0.0 | 0.0 | 0.00 | 0.00 | 0.00 | 69 | 1018.6 |
| 20260830042435 | 55 | 281 | 0.0 | 0.0 | 0.00 | 0.00 | 0.00 | 68 | 1018.5 |
| 20260830041433 | 55 | 281 | 0.0 | 0.0 | 0.00 | 0.00 | 0.00 | 70 | 1018.5 |
| 20260830040433 | 56 | 255 | 0.0 | 0.0 | 0.00 | 0.00 | 0.00 | 71 | 1018.3 |
| 20260830035431 | 56 | 227 | 0.0 | 0.0 | 0.00 | 0.00 | 0.00 | 72 | 1018.4 |
| 20260830035353 | 57 | 227 | 0.0 | 0.0 | 0.00 | 0.00 | 0.00 | 73 | 1018.5 |
| 20260830033432 | 57 | 237 | 0.0 | 0.0 | 0.00 | 0.00 | 0.00 | 73 | 1018.5 |
| 20260830032431 | 58 | 237 | 0.0 | 0.0 | 0.00 | 0.00 | 0.00 | 73 | 1018.5 |
| 20260830031431 | 58 | 221 | 0.0 | 0.0 | 0.00 | 0.00 | 0.00 | 74 | 1018.5 |
| 20260830030431 | 58 | 249 | 0.0 | 0.0 | 0.00 | 0.00 | 0.00 | 75 | 1018.7 |
| 20260830025432 | 58 | 209 | 0.0 | 0.0 | 0.00 | 0.00 | 0.00 | 75 | 1018.6 |
| 20260830024432 | 59 | 279 | 0.0 | 0.0 | 0.00 | 0.00 | 0.00 | 75 | 1018.7 |
| 20260830023432 | 59 | 305 | 0.0 | 0.0 | 0.00 | 0.00 | 0.00 | 75 | 1018.7 |
| 20260830022432 | 59 | 233 | 0.0 | 0.0 | 0.00 | 0.00 | 0.00 | 75 | 1018.9 |
| 20260830021432 | 60 | 250 | 0.0 | 1.7 | 0.00 | 0.00 | 0.00 | 76 | 1018.7 |
| 20260830020432 | 61 | 250 | 0.9 | 2.6 | 0.00 | 0.00 | 0.00 | 75 | 1018.7 |
| 20260830015432 | 62 | 248 | 0.9 | 2.6 | 0.00 | 0.00 | 0.00 | 75 | 1018.6 |
| 20260830014430 | 62 | 275 | 0.0 | 2.6 | 0.00 | 0.00 | 0.00 | 74 | 1018.5 |
| 20260830013430 | 62 | 220 | 0.0 | 2.6 | 0.00 | 0.00 | 0.00 | 74 | 1018.6 |
| 20260830012429 | 62 | 276 | 0.9 | 3.5 | 0.00 | 0.00 | 0.00 | 74 | 1018.8 |
| 20260830011429 | 62 | 245 | 0.9 | 3.5 | 0.00 | 0.00 | 0.00 | 75 | 1018.9 |
| 20260830010429 | 61 | 277 | 0.9 | 3.5 | 0.00 | 0.00 | 0.00 | 75 | 1018.9 |